Terminal Aerodrome Forecast
Issued by NWS

Home | Current Version | Previous Version | Text Only | Print | Product List | Glossary On
Versions: 1 2 3 4 5 6 7 8 9 10 11 12 13 14 15 16 17 18 19 20 21 22 23 24 25 26 27 28 29 30 31 32 33 34 35 36 37 38 39 40 41 42 43 44
000
FTPA31 PHFO 282300
TAFLNY
TAF
PHNY 282331Z 2900/2924 20007KT P6SM SCT010 BKN035
      TEMPO 2900/2903 BKN020
     FM290400 06007KT P6SM SCT010 SCT045
     FM292000 12008KT P6SM SCT010 BKN035
      AMD NOT SKED=

USA.gov is the U.S. government's official web portal to all federal, state and local government web resources and services.